Regional Weather Roundup
Issued by NWS Binghamton, NY

Current Version | Previous Version | Text Only | Print | Product List | Glossary On
Versions: 1 2 3 4 5 6 7 8 9 10 11 12 13 14 15 16 17 18 19 20 21 22 23 24 25 26 27 28 29 30 31 32 33 34 35 36 37 38 39 40 41 42 43 44 45 46 47 48 49 50
000
ASUS41 KBGM 272310
RWRBGM

REGIONAL WEATHER ROUNDUP
NATIONAL WEATHER SERVICE BINGHAMTON NY
700 PM EDT SUN MAY 27 2018

Note: "fair" indicates few or no clouds below 12,000 feet with no
significant weather and/or obstructions to visibility.

* = Station(s) that does not report precipitation, such as rain,
snow, etc, also no thunder or fog.

NYZ009-015>018-022>025-036-037-044>046-055>057-062-280000
...Central New York...

CITY           SKY/WX    TMP DP  RH WIND       PRES   REMARKS
Binghamton     CLOUDY    61  60  97 SE10      30.01S
Cortland       CLOUDY    64  61  88 SE7       30.00S
Dansville      PTSUNNY   79  64  60 S8        29.90S
Elmira         CLOUDY    70  66  87 N3        29.96S
Ithaca         PTSUNNY   67  63  87 SE10G16   29.98F
Monticello     NOT AVBL
Oneonta        DRIZZLE   57 N/A N/A SE7       30.04S
Penn Yan       PTSUNNY   71  65  81 SE10      29.94S
Rome           LGT RAIN  60  58  92 E13       30.05S
Sidney         CLOUDY    61  61 100 CALM      30.02S
Syracuse       CLOUDY    63  63 100 E9        29.96S
$$

PAZ038>040-043-044-047-048-072-280000
...Northeast Pennsylvania...

CITY           SKY/WX    TMP DP  RH WIND       PRES   REMARKS
Hazleton       CLOUDY    63  61  94 SE6       30.06S
Scranton       CLOUDY    66  61  84 CALM      30.01S
$$
&&
KEY
WCI = Wind Chill Index
VSB = Visibility
HX  = Heat Index
$$



USA.gov is the U.S. government's official web portal to all federal, state and local government web resources and services.